Previsão horária em Julinek

Hoje, 14 Junho, Segunda-feira

Tempo Temperatura Precipitação Vento Pressão Humidade
00:00 +10°C° 0 mm 3 m/s 756 mmHg 92%
01:00 +10°C° 0 mm 3 m/s 756 mmHg 93%
02:00 +9°C° 0 mm 3 m/s 756 mmHg 93%
03:00 +9°C° 0 mm 3 m/s 756 mmHg 93%
04:00 +9°C° 0 mm 3 m/s 756 mmHg 94%
05:00 +10°C° 0 mm 3 m/s 756 mmHg 87%
06:00 +12°C° 0 mm 3 m/s 756 mmHg 81%
07:00 +14°C° 0 mm 3 m/s 757 mmHg 75%
08:00 +16°C° 0 mm 3 m/s 757 mmHg 68%
09:00 +18°C° 0 mm 3 m/s 757 mmHg 62%
10:00 +19°C° 0 mm 3 m/s 757 mmHg 55%
11:00 +20°C° 0 mm 3 m/s 756 mmHg 52%
12:00 +21°C° 0 mm 3 m/s 756 mmHg 50%
13:00 +22°C° 0 mm 3 m/s 756 mmHg 47%
14:00 +22°C° 0 mm 3 m/s 756 mmHg 47%
15:00 +22°C° 0 mm 3 m/s 755 mmHg 47%
16:00 +22°C° 0 mm 3 m/s 755 mmHg 47%
17:00 +21°C° 0 mm 2 m/s 755 mmHg 53%
18:00 +20°C° 0 mm 2 m/s 755 mmHg 60%
19:00 +20°C° 0 mm 1 m/s 755 mmHg 66%
20:00 +18°C° 0 mm 1 m/s 755 mmHg 69%
21:00 +16°C° 0 mm 1 m/s 755 mmHg 72%
22:00 +15°C° 0 mm 1 m/s 755 mmHg 75%
23:00 +14°C° 0 mm 1 m/s 755 mmHg 77%

Amanhã, 15 Junho, Terça-feira

Tempo Temperatura Precipitação Vento Pressão Humidade
00:00 +14°C° 0 mm 2 m/s 755 mmHg 80%
01:00 +13°C° 0 mm 2 m/s 754 mmHg 82%
02:00 +13°C° 0 mm 2 m/s 754 mmHg 83%
03:00 +13°C° 0 mm 2 m/s 754 mmHg 83%
04:00 +13°C° 0 mm 2 m/s 754 mmHg 84%
05:00 +14°C° 0 mm 2 m/s 754 mmHg 79%
06:00 +16°C° 0 mm 2 m/s 755 mmHg 74%
07:00 +18°C° 0 mm 3 m/s 755 mmHg 68%
08:00 +19°C° 0 mm 3 m/s 755 mmHg 64%
09:00 +20°C° 0 mm 3 m/s 754 mmHg 61%
10:00 +22°C° 0 mm 3 m/s 754 mmHg 57%
11:00 +22°C° 0 mm 3 m/s 754 mmHg 56%
12:00 +24°C° 0 mm 2 m/s 754 mmHg 55%
13:00 +24°C° 0 mm 2 m/s 754 mmHg 54%
14:00 +25°C° 0 mm 3 m/s 753 mmHg 55%
15:00 +25°C° 0 mm 3 m/s 753 mmHg 57%
16:00 +25°C° 0 mm 3 m/s 753 mmHg 58%
17:00 +22°C° 0.4 mm 3 m/s 753 mmHg 67%
18:00 +21°C° 0.4 mm 3 m/s 753 mmHg 75%
19:00 +19°C° 0.4 mm 3 m/s 753 mmHg 84%
20:00 +18°C° 0.2 mm 3 m/s 753 mmHg 88%
21:00 +17°C° 0.2 mm 3 m/s 753 mmHg 92%
22:00 +16°C° 0.2 mm 3 m/s 754 mmHg 95%
23:00 +16°C° 0 mm 3 m/s 754 mmHg 94%

Depois de amanhã, 16 Junho, Quarta-feira

Tempo Temperatura Precipitação Vento Pressão Humidade
00:00 +14°C° 0 mm 3 m/s 754 mmHg 92%
01:00 +13°C° 0 mm 3 m/s 754 mmHg 90%
02:00 +12°C° 0 mm 3 m/s 755 mmHg 89%
03:00 +11°C° 0 mm 3 m/s 755 mmHg 88%
04:00 +10°C° 0 mm 2 m/s 755 mmHg 87%
05:00 +12°C° 0 mm 3 m/s 755 mmHg 81%
06:00 +13°C° 0 mm 3 m/s 755 mmHg 75%
07:00 +16°C° 0 mm 3 m/s 756 mmHg 68%
08:00 +17°C° 0 mm 2 m/s 756 mmHg 61%
09:00 +19°C° 0 mm 2 m/s 756 mmHg 53%
10:00 +20°C° 0 mm 2 m/s 756 mmHg 46%
11:00 +21°C° 0 mm 2 m/s 756 mmHg 44%
12:00 +23°C° 0 mm 2 m/s 756 mmHg 42%
13:00 +24°C° 0 mm 2 m/s 756 mmHg 40%
14:00 +24°C° 0 mm 2 m/s 756 mmHg 40%
15:00 +24°C° 0 mm 2 m/s 756 mmHg 40%
16:00 +24°C° 0 mm 2 m/s 755 mmHg 41%
17:00 +23°C° 0 mm 2 m/s 755 mmHg 48%
18:00 +20°C° 0 mm 2 m/s 755 mmHg 56%
19:00 +19°C° 0 mm 2 m/s 756 mmHg 64%
20:00 +18°C° 0 mm 2 m/s 756 mmHg 67%
21:00 +17°C° 0 mm 2 m/s 756 mmHg 70%
22:00 +15°C° 0 mm 2 m/s 756 mmHg 73%
23:00 +15°C° 0 mm 2 m/s 756 mmHg 74%

17 Junho, Quinta-feira

Tempo Temperatura Precipitação Vento Pressão Humidade
00:00 +14°C° 0 mm 2 m/s 757 mmHg 76%
01:00 +14°C° 0 mm 2 m/s 757 mmHg 77%
02:00 +13°C° 0 mm 2 m/s 757 mmHg 79%
03:00 +13°C° 0 mm 2 m/s 757 mmHg 82%
04:00 +13°C° 0 mm 2 m/s 757 mmHg 84%
05:00 +14°C° 0 mm 3 m/s 757 mmHg 78%
06:00 +17°C° 0 mm 3 m/s 757 mmHg 72%
07:00 +19°C° 0 mm 3 m/s 757 mmHg 66%
08:00 +20°C° 0 mm 3 m/s 757 mmHg 61%
09:00 +22°C° 0 mm 3 m/s 757 mmHg 56%
10:00 +24°C° 0 mm 3 m/s 757 mmHg 51%
11:00 +25°C° 0 mm 3 m/s 757 mmHg 49%
12:00 +26°C° 0 mm 3 m/s 757 mmHg 47%
13:00 +27°C° 0 mm 3 m/s 757 mmHg 44%
14:00 +27°C° 0 mm 3 m/s 756 mmHg 45%
15:00 +27°C° 0 mm 4 m/s 756 mmHg 45%
16:00 +27°C° 0 mm 4 m/s 756 mmHg 46%
17:00 +26°C° 0 mm 3 m/s 756 mmHg 53%
18:00 +24°C° 0 mm 3 m/s 756 mmHg 61%
19:00 +22°C° 0 mm 3 m/s 756 mmHg 68%
20:00 +21°C° 0 mm 3 m/s 756 mmHg 70%
21:00 +19°C° 0 mm 3 m/s 756 mmHg 73%
22:00 +18°C° 0 mm 3 m/s 757 mmHg 75%
23:00 +18°C° 0 mm 3 m/s 756 mmHg 78%

18 Junho, Sexta-feira

Tempo Temperatura Precipitação Vento Pressão Humidade
00:00 +17°C° 0 mm 3 m/s 756 mmHg 81%
01:00 +17°C° 0 mm 3 m/s 756 mmHg 84%
02:00 +17°C° 0 mm 3 m/s 756 mmHg 86%
03:00 +16°C° 0 mm 3 m/s 756 mmHg 88%
04:00 +16°C° 0 mm 3 m/s 756 mmHg 90%
05:00 +18°C° 0 mm 3 m/s 756 mmHg 83%
06:00 +20°C° 0 mm 4 m/s 756 mmHg 76%
07:00 +22°C° 0 mm 4 m/s 756 mmHg 69%
08:00 +25°C° 0 mm 5 m/s 756 mmHg 65%
09:00 +27°C° 0 mm 5 m/s 756 mmHg 60%
10:00 +28°C° 0 mm 5 m/s 756 mmHg 56%
11:00 +29°C° 0 mm 6 m/s 756 mmHg 54%
12:00 +30°C° 0 mm 6 m/s 755 mmHg 52%
13:00 +32°C° 0 mm 6 m/s 755 mmHg 50%
14:00 +32°C° 0 mm 6 m/s 755 mmHg 51%
15:00 +32°C° 0 mm 6 m/s 755 mmHg 52%
16:00 +32°C° 0 mm 5 m/s 755 mmHg 54%
17:00 +29°C° 0 mm 5 m/s 755 mmHg 59%
18:00 +28°C° 0 mm 5 m/s 755 mmHg 65%
19:00 +27°C° 0 mm 5 m/s 755 mmHg 70%
20:00 +26°C° 0 mm 5 m/s 755 mmHg 74%
21:00 +23°C° 0 mm 5 m/s 755 mmHg 78%
22:00 +22°C° 0 mm 4 m/s 755 mmHg 83%
23:00 +22°C° 0 mm 4 m/s 755 mmHg 85%

19 Junho, Sábado

Tempo Temperatura Precipitação Vento Pressão Humidade
00:00 +21°C° 0 mm 4 m/s 756 mmHg 88%
01:00 +20°C° 0 mm 3 m/s 756 mmHg 91%
02:00 +20°C° 0 mm 3 m/s 756 mmHg 92%
03:00 +20°C° 0 mm 3 m/s 756 mmHg 93%
04:00 +19°C° 0 mm 3 m/s 756 mmHg 94%
05:00 +21°C° 0 mm 4 m/s 756 mmHg 86%
06:00 +22°C° 0 mm 5 m/s 756 mmHg 79%
07:00 +25°C° 0 mm 5 m/s 756 mmHg 72%
08:00 +26°C° 0 mm 6 m/s 756 mmHg 66%
09:00 +27°C° 0 mm 6 m/s 756 mmHg 60%
10:00 +29°C° 0 mm 6 m/s 756 mmHg 54%
11:00 +30°C° 0 mm 6 m/s 756 mmHg 51%
12:00 +30°C° 0 mm 6 m/s 756 mmHg 49%
13:00 +32°C° 0 mm 5 m/s 755 mmHg 46%
14:00 +32°C° 0 mm 5 m/s 755 mmHg 47%
15:00 +32°C° 0 mm 5 m/s 755 mmHg 48%
16:00 +32°C° 0 mm 5 m/s 755 mmHg 50%
17:00 +29°C° 0 mm 5 m/s 755 mmHg 55%
18:00 +28°C° 0 mm 5 m/s 755 mmHg 61%
19:00 +26°C° 0 mm 5 m/s 754 mmHg 67%
20:00 +25°C° 0 mm 4 m/s 755 mmHg 72%
21:00 +23°C° 0 mm 4 m/s 755 mmHg 78%
22:00 +22°C° 0 mm 4 m/s 756 mmHg 84%
23:00 +21°C° 0 mm 3 m/s 755 mmHg 86%
Mostrar mais

Necessitamos do seu Consentimento

A Meteoprog e os seus Fornecedores de Serviços podem armazenar e aceder a dados pessoais como cookies, identificadores do dispositivo ou outras tecnologias semelhantes existentes no seu dispositivo e processar estes dados para personalizar conteúdos e anúncios, assim como funcionalidades nas redes sociais e análise de tráfego.

  • Armazenar e/ou aceder a informações no seu dispositivo

    Os cookies, identificadores do dispositivo ou outras informações podem ser armazenados ou acedidos no seu dispositivo, para os fins acima indicados.

  • Anúncios e conteúdos personalizados, medição de anúncios e conteúdos, dados sobre o público-alvo e desenvolvimento de produtos

    Os anúncios e os conteúdos podem ser personalizados com base num perfil. Podem ser adicionados dados adicionais para uma maior personalização dos anúncios e dos conteúdos. A eficácia dos anúncios e dos conteúdos pode ser medida. Podem ser obtidas informações sobre o público que visualizou os anúncios e os conteúdos. Estes dados podem ser usados para desenvolver ou melhorar sistemas, softwares ou a experiência do utilizador.

Ao clicar em "Eu concordo”, permitirá o uso de cookies, identificadores do dispositivo e web beacons mencionados ou outras tecnologias semelhantes. As configurações do navegador do seu dispositivo podem ser alteradas.

Para certos fins, podem ser invocados interesses legítimos ao invés de consentimento. Pode ler mais informação sobre este assunto na nossa Política de Privacidade e Cookies.